• In Lithuania
  • List of Countries
  • For 7 days
  • Water Temperature
  • Satellite Maps
  • Weather Map
  • Weather Widgets
  • user-avatar
    Login

    Hourly Weather Lyubimovka

    Today, 21 October, Sunday

    Time Temperature Precipitation Wind Pressure Humidity
    00:00 +6°C° 0 mm 2 mps 748 mmHg 76%
    01:00 +6°C° 0 mm 2 mps 748 mmHg 77%
    02:00 +5°C° 0 mm 2 mps 748 mmHg 79%
    03:00 +5°C° 0 mm 2 mps 749 mmHg 80%
    04:00 +5°C° 0 mm 2 mps 749 mmHg 82%
    05:00 +4°C° 0 mm 2 mps 749 mmHg 84%
    06:00 +4°C° 0 mm 2 mps 749 mmHg 86%
    07:00 +3°C° 0 mm 3 mps 749 mmHg 84%
    08:00 +4°C° 0 mm 3 mps 750 mmHg 82%
    09:00 +4°C° 0 mm 3 mps 750 mmHg 80%
    10:00 +7°C° 0 mm 3 mps 750 mmHg 75%
    11:00 +8°C° 0 mm 3 mps 750 mmHg 70%
    12:00 +9°C° 0 mm 3 mps 750 mmHg 65%
    13:00 +9°C° 0 mm 3 mps 750 mmHg 63%
    14:00 +9°C° 0 mm 3 mps 750 mmHg 62%
    15:00 +10°C° 0 mm 3 mps 750 mmHg 60%
    16:00 +9°C° 0 mm 3 mps 751 mmHg 64%
    17:00 +8°C° 0 mm 3 mps 751 mmHg 68%
    18:00 +7°C° 0 mm 2 mps 751 mmHg 72%
    19:00 +7°C° 0 mm 2 mps 751 mmHg 74%
    20:00 +6°C° 0 mm 2 mps 751 mmHg 75%
    21:00 +6°C° 0 mm 2 mps 752 mmHg 77%
    22:00 +5°C° 0 mm 2 mps 752 mmHg 78%
    23:00 +5°C° 0 mm 2 mps 752 mmHg 80%

    Tomorrow, 22 October, Monday

    Time Temperature Precipitation Wind Pressure Humidity
    00:00 +5°C° 0 mm 2 mps 752 mmHg 81%
    01:00 +4°C° 0 mm 2 mps 752 mmHg 83%
    02:00 +4°C° 0 mm 2 mps 752 mmHg 84%
    03:00 +4°C° 0 mm 2 mps 752 mmHg 85%
    04:00 +4°C° 0 mm 2 mps 751 mmHg 86%
    05:00 +4°C° 0 mm 2 mps 751 mmHg 87%
    06:00 +3°C° 0 mm 2 mps 751 mmHg 88%
    07:00 +4°C° 0 mm 2 mps 751 mmHg 86%
    08:00 +4°C° 0 mm 2 mps 751 mmHg 83%
    09:00 +5°C° 0 mm 2 mps 752 mmHg 81%
    10:00 +6°C° 0 mm 2 mps 751 mmHg 75%
    11:00 +8°C° 0 mm 2 mps 751 mmHg 69%
    12:00 +9°C° 0 mm 2 mps 751 mmHg 63%
    13:00 +11°C° 0 mm 1 mps 750 mmHg 62%
    14:00 +12°C° 0 mm 1 mps 750 mmHg 61%
    15:00 +12°C° 0 mm 1 mps 749 mmHg 61%
    16:00 +11°C° 0 mm 1 mps 749 mmHg 66%
    17:00 +10°C° 0 mm 1 mps 749 mmHg 71%
    18:00 +9°C° 0 mm 1 mps 748 mmHg 76%
    19:00 +9°C° 0 mm 1 mps 748 mmHg 78%
    20:00 +9°C° 0 mm 1 mps 747 mmHg 81%
    21:00 +9°C° 0 mm 1 mps 747 mmHg 84%
    22:00 +9°C° 0.2 mm 1 mps 747 mmHg 86%
    23:00 +9°C° 0.2 mm 1 mps 746 mmHg 88%

    Day after tomorrow, 23 October, Tuesday

    Time Temperature Precipitation Wind Pressure Humidity
    00:00 +9°C° 0.2 mm 1 mps 746 mmHg 90%
    01:00 +9°C° 0.3 mm 1 mps 745 mmHg 91%
    02:00 +9°C° 0.3 mm 1 mps 744 mmHg 93%
    03:00 +10°C° 0.3 mm 1 mps 744 mmHg 94%
    04:00 +10°C° 0.4 mm 1 mps 743 mmHg 93%
    05:00 +9°C° 0.4 mm 2 mps 742 mmHg 93%
    06:00 +9°C° 0.4 mm 2 mps 741 mmHg 92%
    07:00 +8°C° 0.5 mm 2 mps 741 mmHg 91%
    08:00 +8°C° 0.5 mm 3 mps 741 mmHg 90%
    09:00 +8°C° 0.5 mm 3 mps 740 mmHg 89%
    10:00 +8°C° 0.9 mm 3 mps 740 mmHg 86%
    11:00 +7°C° 0.9 mm 3 mps 739 mmHg 82%
    12:00 +7°C° 0.9 mm 3 mps 739 mmHg 79%
    13:00 +7°C° 0.1 mm 4 mps 738 mmHg 75%
    14:00 +7°C° 0.1 mm 4 mps 738 mmHg 70%
    15:00 +8°C° 0.1 mm 4 mps 738 mmHg 65%
    16:00 +7°C° 0 mm 4 mps 737 mmHg 69%
    17:00 +8°C° 0 mm 3 mps 737 mmHg 74%
    18:00 +7°C° 0 mm 3 mps 737 mmHg 78%
    19:00 +7°C° 0 mm 3 mps 736 mmHg 79%
    20:00 +5°C° 0 mm 4 mps 736 mmHg 81%
    21:00 +5°C° 0 mm 4 mps 736 mmHg 82%
    22:00 +5°C° 0 mm 4 mps 735 mmHg 82%
    23:00 +5°C° 0 mm 4 mps 735 mmHg 83%

    24 October, Wednesday

    Time Temperature Precipitation Wind Pressure Humidity
    00:00 +5°C° 0 mm 5 mps 734 mmHg 83%
    01:00 +5°C° 0.1 mm 4 mps 734 mmHg 84%
    02:00 +5°C° 0.1 mm 4 mps 733 mmHg 84%
    03:00 +5°C° 0.1 mm 4 mps 732 mmHg 85%
    04:00 +5°C° 0 mm 4 mps 732 mmHg 85%
    05:00 +5°C° 0 mm 4 mps 731 mmHg 85%
    06:00 +5°C° 0 mm 4 mps 731 mmHg 85%
    07:00 +5°C° 0.1 mm 5 mps 730 mmHg 83%
    08:00 +5°C° 0.1 mm 5 mps 730 mmHg 82%
    09:00 +4°C° 0.1 mm 6 mps 730 mmHg 81%
    10:00 +5°C° 0.1 mm 6 mps 729 mmHg 77%
    11:00 +5°C° 0.1 mm 6 mps 729 mmHg 73%
    12:00 +6°C° 0.1 mm 7 mps 729 mmHg 69%
    13:00 +6°C° 0.4 mm 7 mps 728 mmHg 71%
    14:00 +6°C° 0.4 mm 7 mps 727 mmHg 74%
    15:00 +5°C° 0.4 mm 7 mps 727 mmHg 76%
    16:00 +6°C° 0.5 mm 7 mps 726 mmHg 78%
    17:00 +6°C° 0.5 mm 7 mps 726 mmHg 80%
    18:00 +6°C° 0.5 mm 8 mps 725 mmHg 82%
    19:00 +6°C° 0.5 mm 7 mps 725 mmHg 84%
    20:00 +7°C° 0.5 mm 6 mps 725 mmHg 85%
    21:00 +7°C° 0.5 mm 6 mps 724 mmHg 87%
    22:00 +5°C° 0.1 mm 6 mps 724 mmHg 86%
    23:00 +5°C° 0.1 mm 6 mps 724 mmHg 86%

    25 October, Thursday

    Time Temperature Precipitation Wind Pressure Humidity
    00:00 +5°C° 0.1 mm 6 mps 724 mmHg 86%
    01:00 +5°C° 0 mm 5 mps 725 mmHg 85%
    02:00 +5°C° 0 mm 5 mps 725 mmHg 84%
    03:00 +3°C° 0 mm 5 mps 725 mmHg 84%
    04:00 +3°C° 0 mm 5 mps 725 mmHg 83%
    05:00 +2°C° 0 mm 5 mps 725 mmHg 83%
    06:00 +2°C° 0 mm 5 mps 725 mmHg 83%
    07:00 +2°C° 0 mm 5 mps 725 mmHg 81%
    08:00 +2°C° 0 mm 5 mps 725 mmHg 79%
    09:00 +2°C° 0 mm 5 mps 725 mmHg 77%
    10:00 +3°C° 0 mm 5 mps 726 mmHg 72%
    11:00 +5°C° 0 mm 5 mps 726 mmHg 67%
    12:00 +4°C° 0 mm 6 mps 726 mmHg 63%
    13:00 +4°C° 0 mm 6 mps 726 mmHg 62%
    14:00 +5°C° 0 mm 6 mps 726 mmHg 62%
    15:00 +5°C° 0 mm 6 mps 726 mmHg 61%
    16:00 +4°C° 0 mm 6 mps 726 mmHg 63%
    17:00 +5°C° 0 mm 5 mps 726 mmHg 65%
    18:00 +3°C° 0 mm 5 mps 727 mmHg 67%
    19:00 +3°C° 0 mm 5 mps 727 mmHg 69%
    20:00 +3°C° 0 mm 5 mps 727 mmHg 70%
    21:00 +3°C° 0 mm 5 mps 727 mmHg 72%
    22:00 +3°C° 0 mm 5 mps 727 mmHg 75%
    23:00 +3°C° 0 mm 5 mps 728 mmHg 79%

    26 October, Friday

    Time Temperature Precipitation Wind Pressure Humidity
    00:00 +3°C° 0 mm 4 mps 728 mmHg 82%
    01:00 +3°C° 0 mm 4 mps 729 mmHg 85%
    02:00 +3°C° 0 mm 4 mps 729 mmHg 87%
    03:00 +3°C° 0 mm 3 mps 729 mmHg 89%
    04:00 +3°C° 0 mm 3 mps 730 mmHg 89%
    05:00 +3°C° 0 mm 3 mps 731 mmHg 88%
    06:00 +3°C° 0 mm 3 mps 731 mmHg 88%
    07:00 +3°C° 0 mm 3 mps 732 mmHg 86%
    08:00 +3°C° 0 mm 3 mps 732 mmHg 84%
    09:00 +1°C° 0 mm 4 mps 733 mmHg 83%
    10:00 +3°C° 0 mm 4 mps 733 mmHg 78%
    11:00 +4°C° 0 mm 4 mps 733 mmHg 73%
    12:00 +5°C° 0 mm 4 mps 734 mmHg 68%
    13:00 +5°C° 0 mm 4 mps 734 mmHg 66%
    14:00 +5°C° 0 mm 4 mps 734 mmHg 64%
    15:00 +5°C° 0 mm 4 mps 734 mmHg 62%
    16:00 +5°C° 0 mm 4 mps 735 mmHg 66%
    17:00 +4°C° 0 mm 4 mps 735 mmHg 70%
    18:00 +3°C° 0 mm 3 mps 735 mmHg 73%
    19:00 +3°C° 0 mm 3 mps 736 mmHg 75%
    20:00 +3°C° 0 mm 4 mps 736 mmHg 77%
    21:00 +1°C° 0 mm 4 mps 736 mmHg 79%
    22:00 +1°C° 0 mm 4 mps 736 mmHg 80%
    23:00 +1°C° 0 mm 4 mps 736 mmHg 82%
    Show more